EW6707 Weather Reports


Display with metric or nautical units.
time (UTC)temp
F
wind
direction
speed
MPH
gust
MPH
rain 1hr
in
rain 24hr
in
rain mn
in
humidity
%
barometer
mb
20260506002558 0 10 6.0 12.0 0.00 0.00 0.00
20260506001514 0 19 3.0 10.0 0.00 0.00 0.00
20260506000516 0 10 3.0 11.0 0.00 0.00 0.00
20260505235516 0 18 4.0 11.0 0.00 0.00 0.00
20260505234518 0 19 4.0 14.0 0.00 0.00 0.00
20260505233536 0 16 3.0 16.0 0.00 0.00 0.00
20260505232516 0 10 4.0 10.0 0.00 0.00 0.00
20260505231516 0 20 5.0 14.0 0.00 0.00 0.00
20260505230516 0 1 1.0 11.0 0.00 0.00 0.00
20260505225517 0 12 4.0 11.0 0.00 0.00 0.00
20260505224536 0 18 4.0 11.0 0.00 0.00 0.00
20260505223536 0 15 2.0 9.0 0.00 0.00 0.00
20260505222518 0 26 2.0 12.0 0.00 0.00 0.00
20260505221516 0 13 3.0 10.0 0.00 0.00 0.00
20260505220516 0 23 5.0 12.0 0.00 0.00 0.00
20260505215515 0 23 4.0 10.0 0.00 0.00 0.00
20260505214515 0 25 2.0 8.0 0.00 0.00 0.00
20260505213515 0 13 3.0 12.0 0.00 0.00 0.00
20260505212515 0 16 5.0 11.0 0.00 0.00 0.00
20260505211515 0 24 6.0 13.0 0.00 0.00 0.00
20260505210515 0 20 4.0 13.0 0.00 0.00 0.00
20260505205515 0 9 4.0 11.0 0.00 0.00 0.00
20260505204537 0 15 3.0 11.0 0.00 0.00 0.00
20260505203515 0 14 4.0 11.0 0.00 0.00 0.00
20260505202536 0 24 2.0 12.0 0.00 0.00 0.00
20260505201515 0 27 3.0 12.0 0.00 0.00 0.00
20260505200515 0 19 4.0 12.0 0.00 0.00 0.00
20260505195515 0 38 2.0 8.0 0.00 0.00 0.00
20260505194517 0 32 4.0 9.0 0.00 0.00 0.00
20260505193516 0 10 3.0 8.0 0.00 0.00 0.00
20260505192516 0 35 2.0 8.0 0.00 0.00 0.00
20260505191514 0 27 1.0 9.0 0.00 0.00 0.00
20260505190517 0 16 2.0 11.0 0.00 0.00 0.00
20260505185515 0 29 5.0 11.0 0.00 0.00 0.00
20260505184515 0 34 4.0 11.0 0.00 0.00 0.00
20260505183516 0 31 4.0 12.0 0.00 0.00 0.00
20260505182518 0 28 3.0 11.0 0.00 0.00 0.00
20260505181539 0 29 4.0 8.0 0.00 0.00 0.00
20260505180516 0 23 2.0 14.0 0.00 0.00 0.00
20260505175538 0 20 5.0 13.0 0.00 0.00 0.00
20260505174518 0 37 6.0 12.0 0.00 0.00 0.00
20260505173557 0 35 4.0 13.0 0.00 0.00 0.00
20260505172517 0 42 4.0 11.0 0.00 0.00 0.00
20260505171516 0 47 5.0 11.0 0.00 0.00 0.00
20260505170517 0 33 3.0 12.0 0.00 0.00 0.00
20260505165517 0 61 4.0 12.0 0.00 0.00 0.00
20260505164517 60 66 4.0 13.0 0.00 0.00 0.00 57
20260505163538 60 25 4.0 13.0 0.00 0.00 0.00 57
20260505162537 60 357 8.0 14.0 0.00 0.00 0.00 54
20260505161516 60 18 6.0 20.0 0.00 0.00 0.00 56
20260505160516 60 18 4.0 13.0 0.00 0.00 0.00 55
20260505152518 61 345 6.0 16.0 0.00 0.00 0.00 53
20260505151518 61 46 6.0 11.0 0.00 0.00 0.00 51
20260505150536 61 50 3.0 12.0 0.00 0.00 0.00 52
20260505140516 61 31 5.0 11.0 0.00 0.00 0.00 56
20260505124516 57 60 4.0 12.0 0.00 0.00 0.00 66
20260505123515 56 61 4.0 11.0 0.00 0.00 0.00 69
20260505122536 55 53 5.0 13.0 0.00 0.00 0.00 71
20260505121539 54 36 5.0 12.0 0.00 0.00 0.00 72
20260505120538 54 17 3.0 11.0 0.00 0.00 0.00 73
20260505115517 54 29 1.0 10.0 0.00 0.00 0.00 74
20260505114515 0 37 3.0 12.0 0.00 0.00 0.00
20260505113515 0 50 2.0 9.0 0.00 0.00 0.00
20260505112516 0 47 2.0 11.0 0.00 0.00 0.00
20260505111515 0 35 5.0 10.0 0.00 0.00 0.00
20260505110515 0 37 4.0 12.0 0.00 0.00 0.00
20260505101515 0 43 1.0 10.0 0.00 4.89 0.00
20260505100515 0 40 4.0 11.0 0.00 5.64 0.00
20260505095515 0 44 5.0 12.0 0.00 5.64 0.00
20260505094515 0 47 4.0 13.0 0.00 5.64 0.00
20260505093515 0 33 6.0 13.0 0.00 5.64 0.00
20260505092517 0 35 4.0 12.0 0.00 5.64 0.00
20260505091515 0 42 4.0 10.0 0.00 5.64 0.00
20260505090518 0 36 4.0 13.0 0.00 5.64 0.00
20260505085515 0 39 4.0 13.0 0.00 5.64 0.00
20260505084515 0 47 3.0 14.0 0.00 5.64 0.00
20260505083515 0 44 5.0 12.0 0.00 5.64 0.00
20260505082515 0 22 5.0 16.0 0.00 5.64 0.00
20260505081515 0 34 6.0 16.0 0.00 5.64 0.00
20260505080515 0 49 5.0 14.0 0.00 5.64 0.00
20260505075516 0 43 5.0 17.0 0.00 5.64 0.00
20260505074514 0 25 4.0 11.0 0.00 5.64 0.00
20260505073516 0 31 5.0 14.0 0.00 5.64 0.00
20260505072514 0 19 3.0 11.0 0.00 5.64 0.00
20260505071515 0 16 2.0 15.0 0.00 5.64 0.00
20260505070515 0 16 2.0 11.0 0.00 5.64 0.00
20260505065515 0 9 1.0 6.0 0.00 5.64 0.00
20260505064516 0 40 4.0 12.0 0.00 5.64 0.00
20260505063514 0 7 1.0 10.0 0.00 5.64 0.00
20260505062514 0 18 1.0 10.0 0.00 5.64 0.00
20260505061538 0 34 1.0 8.0 0.00 5.64 0.00
20260505060517 0 22 1.0 10.0 0.00 5.64 0.00
20260505055540 0 32 3.0 10.0 0.00 5.64 0.00
20260505054557 0 28 2.0 7.0 0.00 5.64 0.00
20260505053514 0 35 3.0 10.0 0.00 5.64 0.00
20260505052516 0 33 1.0 11.0 0.00 5.64 0.00
20260505051516 0 23 4.0 12.0 0.00 5.64 0.00
20260505050518 0 26 3.0 11.0 0.00 5.64 0.00
20260505041516 0 34 1.0 7.0 0.00 5.64 0.00
20260505040516 0 24 2.0 10.0 0.00 5.64 0.00
20260505035516 0 36 3.0 10.0 0.00 5.64 0.00
20260505034516 0 45 0.0 8.0 0.00 5.64 0.00
20260505033536 0 17 1.0 7.0 0.00 5.64 0.00
20260505032516 0 18 2.0 8.0 0.00 5.64 0.00
20260505031556 0 17 2.0 10.0 0.00 5.64 0.00
20260505030516 0 15 3.0 8.0 0.00 5.64 0.00
20260505025516 0 10 0.0 12.0 0.00 5.64 0.00
20260505024516 0 24 4.0 12.0 0.00 5.64 0.00
20260505023517 0 51 3.0 11.0 0.00 5.64 0.00
20260505022516 0 32 3.0 11.0 0.00 5.64 0.00
20260505021517 0 28 6.0 14.0 0.00 5.64 0.00
20260505020556 0 27 2.0 11.0 0.00 5.64 0.00
20260505015516 0 25 4.0 11.0 0.00 5.64 0.00
20260505014516 0 16 2.0 12.0 0.00 5.64 0.00
20260505013516 0 20 3.0 10.0 0.00 5.64 0.00
20260505012516 0 24 1.0 6.0 0.00 5.64 0.00
20260505011536 0 17 1.0 7.0 0.00 5.64 0.00
20260505010515 0 31 4.0 13.0 0.00 5.64 0.00
20260505005516 0 19 4.0 11.0 0.00 5.64 0.00
20260505004537 0 44 2.0 8.0 0.00 5.64 0.00
20260505003537 0 24 2.0 9.0 0.00 5.64 0.00